Location: Unspecified
(0.0000°N, 0.0000°E)
Time: 00:08:40
(UTC+00:00)

ANNA 1B - Visible Passes

Search period start: 07 June 2023 00:00
Search period end: 17 June 2023 00:00
Orbit: 1074 x 1179 km, 50.1° (Epoch: 06 June)

Date Brightness Start Highest point End Pass type
(mag) Time Alt. Az. Time Alt. Az. Time Alt. Az.
07 Jun 9.3 20:13:38 10° NNW 20:20:00 48° NNE 20:20:00 48° NNE visible
08 Jun 9.6 19:34:11 10° N 19:40:56 35° NE 19:42:18 33° ENE visible
08 Jun 10.7 21:27:08 10° WNW 21:30:11 23° W 21:30:11 23° W visible
09 Jun 10.1 18:55:03 10° N 19:00:55 24° NE 19:04:40 17° E visible
09 Jun 9.6 20:46:40 10° NW 20:52:33 47° W 20:52:33 47° W visible
10 Jun 8.8 20:06:29 10° NW 20:14:01 76° SW 20:14:57 67° S visible
11 Jun 8.8 19:26:32 10° NNW 19:34:04 78° NE 19:37:24 37° SE visible
11 Jun 11.0 21:22:54 10° W 21:25:17 15° WSW 21:25:17 15° WSW visible
12 Jun 9.1 18:46:48 10° NNW 18:54:07 54° NE 18:59:52 17° SE visible
12 Jun 10.4 20:41:23 10° WNW 20:47:09 24° SW 20:47:46 24° SW visible
13 Jun 10.0 20:00:29 10° WNW 20:07:09 34° SW 20:10:15 25° SSW visible
14 Jun 9.6 19:19:58 10° NW 19:27:11 49° SW 19:32:47 17° SSE visible
15 Jun 10.8 05:09:25 10° S 05:14:16 20° SE 05:19:05 10° E visible
15 Jun 9.2 18:39:45 10° NW 18:47:14 71° SW 18:54:45 10° SSE visible
16 Jun 11.0 04:31:20 10° SSE 04:34:14 13° SE 04:37:08 10° ESE visible
16 Jun 11.0 19:56:32 10° W 20:00:28 15° SW 20:04:25 10° SSW visible
